Total_Precipitation_Accumulation
0.98 0.98 0.99 1.02 0.64 0.46 0.32 0.22 0.16 0.12 0.09 0.09 0.16 0.15 0.10 0.13 0.11 0.08 0.05 0.11 0.35 0.57 1.61 2.05 1.72 1.80 1.78 1.54 1.37 1.26 1.19 0.94 0.75 0.68 0.61 0.55 0.54 0.56 0.63 0.57 0.50 0.50 0.50
1.61 1.50 1.18 1.11 1.46 1.60 1.23 0.88 0.53 0.28 0.16 0.12 0.09 0.10 0.12 0.12 0.13 0.11 0.09 0.12 0.24 0.37 0.69 1.53 1.33 1.79 2.25 2.16 1.89 1.82 1.69 1.22 1.05 0.97 0.90 0.84 0.78 0.71 0.76 0.82 0.70 0.61 0.58
1.28 1.69 1.77 1.34 1.21 1.75 2.16 2.05 1.60 1.19 0.73 0.45 0.24 0.11 0.10 0.12 0.13 0.12 0.12 0.14 0.26 0.32 0.50 1.07 1.38 1.66 2.78 3.75 2.97 2.72 2.30 1.78 1.60 1.49 1.31 1.14 1.13 1.00 1.01 1.05 1.07 0.85 0.73
1.16 1.56 1.56 1.67 1.91 1.81 2.29 2.14 1.49 1.25 1.04 0.96 0.82 0.64 0.45 0.31 0.19 0.16 0.17 0.18 0.27 0.30 0.32 0.64 0.84 1.56 1.74 2.46 3.98 3.78 2.79 2.37 1.91 1.78 1.72 1.60 1.52 1.61 1.72 1.69 1.59 1.51 1.45
1.02 1.13 1.60 2.46 2.72 2.48 1.85 1.86 2.23 1.93 1.23 0.72 0.66 0.74 0.76 0.65 0.44 0.31 0.20 0.22 0.30 0.39 0.42 0.67 0.72 0.76 1.16 1.80 1.71 1.85 1.63 1.50 1.36 1.50 1.53 1.57 1.43 1.32 1.28 1.45 1.80 2.17 2.30
1.33 1.43 1.18 1.43 2.42 2.91 2.91 2.51 1.85 1.96 1.96 1.80 1.36 0.83 0.61 0.49 0.46 0.50 0.41 0.33 0.32 0.41 0.46 0.72 0.73 0.84 1.05 1.21 1.86 1.75 1.43 1.40 1.47 1.60 1.65 1.73 1.78 1.88 1.83 1.74 1.80 1.90 1.75
1.64 1.70 1.68 1.62 1.89 1.85 1.85 2.28 3.00 2.74 2.18 2.08 2.48 1.78 1.19 0.79 0.44 0.32 0.45 0.53 0.44 0.46 0.66 0.94 1.11 0.98 0.98 1.08 1.20 1.56 1.94 1.80 1.89 2.03 2.16 2.25 2.35 2.41 2.37 2.36 2.22 2.02 1.78
1.65 1.89 1.68 1.58 1.68 1.86 1.69 1.38 1.49 2.13 2.41 2.76 2.50 2.13 1.63 1.18 0.97 0.50 0.24 0.23 0.32 0.46 0.46 0.52 0.64 0.81 0.89 0.86 0.95 1.22 1.34 1.52 1.51 1.61 1.94 2.07 1.96 1.79 1.72 1.74 1.79 1.97 2.22
1.77 1.85 2.03 2.05 2.01 1.90 1.87 1.72 1.54 1.70 1.63 1.94 2.49 2.72 2.03 1.26 0.73 0.68 0.64 0.42 0.28 0.32 0.39 0.60 0.72 0.74 0.65 0.47 0.51 0.63 1.03 1.13 1.24 1.56 1.83 2.12 2.13 1.78 1.70 1.74 1.96 2.36 2.78
1.63 1.89 2.00 2.10 2.27 2.40 2.01 1.97 2.04 2.24 2.21 1.58 1.51 1.66 2.00 1.65 1.10 0.62 0.46 0.63 0.67 0.67 0.67 0.74 0.80 0.69 0.63 0.51 0.49 0.49 0.72 0.96 0.96 1.18 1.45 2.01 2.54 2.63 2.79 3.07 3.38 3.74 3.84
2.22 2.32 2.39 2.50 2.36 2.41 2.66 2.36 2.18 2.18 2.74 2.62 2.19 1.66 1.47 1.63 1.72 1.61 0.92 0.68 0.84 0.94 1.09 0.98 0.70 0.56 0.79 1.10 1.35 1.24 1.12 1.17 1.45 1.74 1.99 2.12 2.74 3.43 3.84 4.02 4.67 4.38 4.40
1.95 2.29 2.45 2.37 2.37 2.06 1.93 2.05 2.08 1.90 1.77 2.03 2.26 2.35 2.02 1.65 1.48 1.85 1.68 1.04 0.87 0.77 0.74 0.98 1.45 1.37 1.36 1.45 1.77 2.02 2.47 2.20 2.95 3.12 3.03 3.68 3.56 3.89 3.88 3.99 3.91 2.87 2.78
1.28 1.30 1.65 1.77 1.59 1.61 1.60 1.65 1.46 1.36 1.49 1.48 1.60 1.92 2.16 2.28 2.32 2.12 2.14 1.72 1.35 1.03 0.96 0.73 0.66 0.80 0.77 0.87 1.40 1.60 2.33 2.67 2.87 3.75 3.62 3.59 3.75 3.08 2.56 2.43 2.74 3.22 2.89
1.71 1.42 1.22 1.54 1.66 1.42 1.26 1.24 1.11 0.88 0.91 1.02 1.09 1.23 1.57 1.95 2.44 2.73 2.74 3.06 2.80 1.97 1.43 0.95 0.92 1.05 1.20 1.53 1.69 1.95 1.58 1.81 1.71 1.81 2.56 2.98 2.94 2.23 1.78 1.45 1.68 2.17 2.42
1.42 1.29 1.11 1.02 1.01 1.00 1.16 1.20 1.13 0.97 0.88 0.86 0.96 1.18 1.34 1.27 1.79 2.17 2.57 2.91 3.65 3.29 2.03 1.26 1.21 1.29 1.14 1.17 1.52 1.42 1.19 1.51 1.58 1.71 1.66 1.89 2.51 2.46 1.68 1.59 1.49 1.53 1.80
1.49 1.38 1.12 0.95 0.78 0.68 0.79 0.90 0.91 0.93 0.99 0.91 0.88 0.96 1.11 1.37 1.49 1.62 2.05 2.46 2.76 3.14 2.74 1.48 1.42 1.38 1.55 1.57 1.67 1.53 1.51 1.92 1.50 1.39 1.51 1.45 1.50 1.93 1.66 1.16 1.07 0.95 0.78
1.53 1.24 1.20 1.20 0.98 0.81 0.82 0.94 0.91 0.95 1.09 0.97 0.94 0.96 0.94 1.07 1.51 1.65 1.57 1.93 2.48 2.67 2.61 1.72 1.50 1.48 1.49 1.63 1.60 1.30 1.15 1.06 1.01 1.09 0.92 0.91 0.93 1.04 1.53 1.45 1.01 0.89 0.99
1.75 1.28 1.04 0.99 1.03 1.00 0.98 1.06 1.26 1.19 1.05 1.12 1.08 1.15 1.05 1.03 1.14 1.45 1.85 1.80 1.94 2.43 2.88 2.46 2.00 1.86 1.65 1.25 1.08 0.90 0.62 0.53 0.58 0.75 0.60 0.52 0.57 0.69 0.82 1.18 1.30 0.95 0.77
1.69 1.50 1.23 1.11 0.94 0.84 0.91 0.98 1.01 1.03 1.14 1.11 1.08 1.00 0.99 1.14 1.35 1.49 1.87 2.35 2.19 1.88 1.95 1.91 1.56 1.24 1.05 0.84 0.70 0.74 0.69 0.51 0.39 0.62 0.63 0.48 0.46 0.44 0.54 0.74 1.12 1.36 1.09
1.84 1.58 1.41 1.30 1.22 0.88 0.76 0.70 0.65 0.74 0.81 0.92 0.89 0.91 0.86 0.94 0.91 0.98 1.09 1.12 1.47 1.61 1.28 1.18 1.15 1.20 1.02 0.80 0.83 0.78 0.89 0.87 0.64 0.50 0.55 0.59 0.57 0.49 0.43 0.54 0.74 0.99 1.35
2.06 2.01 1.73 1.38 1.31 1.31 1.12 0.90 0.70 0.75 0.80 0.93 1.03 0.98 0.97 0.97 0.97 0.81 0.86 0.87 0.94 1.35 1.83 1.80 1.33 1.11 1.15 1.13 1.10 0.92 0.89 0.90 0.80 0.59 0.44 0.45 0.57 0.63 0.53 0.47 0.48 0.78 1.09
1.83 2.07 2.10 1.80 1.39 1.37 1.82 1.44 1.14 1.13 1.09 0.98 0.92 0.81 0.76 0.89 0.73 0.82 0.81 0.85 1.09 1.32 1.59 1.95 1.80 1.13 0.84 0.98 1.11 1.22 1.25 1.26 1.30 1.01 0.90 0.71 0.69 0.78 0.60 0.53 0.59 0.52 0.80
1.96 2.17 2.31 2.22 2.22 1.90 2.13 2.11 1.79 1.31 1.21 0.99 0.80 0.71 0.63 0.53 0.59 0.44 0.61 0.68 0.80 1.08 1.30 1.39 1.53 1.08 0.87 0.89 1.40 1.54 1.41 1.36 1.05 0.92 1.22 1.04 0.75 0.72 0.65 0.58 0.74 0.70 0.58
2.21 2.19 2.15 2.23 2.40 2.09 2.04 1.96 1.93 1.52 1.11 0.69 0.63 0.49 0.43 0.38 0.38 0.52 0.56 0.85 0.71 0.53 0.49 0.64 0.80 0.67 0.78 0.83 1.40 1.80 1.82 1.63 1.27 1.00 1.11 1.38 0.77 0.57 0.51 0.53 0.67 0.66 0.66
1.85 1.86 1.72 1.76 1.77 1.69 1.60 1.62 1.65 1.57 1.38 0.74 0.36 0.39 0.37 0.35 0.47 0.75 0.95 1.14 0.85 0.55 0.41 0.56 0.74 0.80 0.97 1.24 1.60 2.24 2.47 2.45 2.03 1.33 1.14 1.38 0.99 0.78 0.58 0.49 0.60 0.83 0.72
1.61 1.42 1.40 1.41 1.57 1.45 1.60 1.40 1.46 1.60 1.51 1.42 0.74 0.39 0.59 0.45 0.56 0.84 0.97 1.00 0.93 0.60 0.54 0.54 0.62 0.73 0.81 0.83 1.18 1.48 1.90 2.73 2.31 2.01 1.29 2.01 1.58 1.51 1.90 0.85 0.67 0.64 0.63